Flag for United Kingdom Weather past 2 weeks in Belfast, Northern Ireland, United Kingdom

Now
46 °F

Passing clouds.


Feels Like: 41 °F
Forecast: 40 / 53 °F
Wind: 10 mph from West

Location: Belfast / Harbour

Current Time: May 7, 2015 at 9:52:04 AM

Latest Report: May 7, 2015 at 9:20 AM


Visibility: N/A

Pressure: 29.95 "Hg

Humidity: 62%

Dew point: 34 °F

Location of BelfastLocation

Historic Weather in Belfast — Graph

°F

Belfast temperature yesterday

Maximum temperature yesterday: 54 °F (at 6:20 PM)
Minimum temperature yesterday: 45 °F (at 6:20 AM)
Average temperature yesterday: 49 °F

Past Weeks' High & Low Weather Summary

 TemperatureHumidityPressure
High61 °F (Apr 23, 10:50 AM)94% (May 5, 10:50 AM)30.54 "Hg (May 5, 10:50 AM)
Low32 °F (Apr 27, 6:20 AM)35% (Apr 30, 5:20 PM)29.00 "Hg (May 5, 11:50 AM)
Average48 °F68%29.71 "Hg
* Reported Apr 22 8:20 AM — May 7 8:50 AM, Belfast, Weather by CustomWeather, © 2015

Note: Actual official high and low records may vary slightly from our data, if they occured in-between our weather recording intervals... More about our weather records

Advertising

Belfast weather history for previous 24 hours

 ConditionsComfort  
Time TempWeatherWind HumidityBarometerVisibility
8:50 AM
Thu, May 7
46 °FPassing clouds.8 mph66%29.95 "HgN/A
8:20 AM45 °FPassing clouds.8 mph71%29.92 "HgN/A
7:50 AM45 °FPassing clouds.8 mph71%29.92 "HgN/A
7:20 AM43 °FPassing clouds.6 mph76%29.92 "HgN/A
6:50 AM43 °FScattered showers. Passing clouds.5 mph76%29.92 "HgN/A
6:20 AM43 °FScattered showers. Passing clouds.7 mph76%29.89 "HgN/A
5:50 AM43 °FScattered showers. Partly cloudy.6 mph76%29.89 "HgN/A
5:20 AM43 °FScattered showers. Partly cloudy.5 mph76%29.89 "HgN/A
4:50 AM43 °FScattered showers. Partly cloudy.6 mph76%29.89 "HgN/A
4:20 AM43 °FScattered showers. Partly cloudy.6 mph76%29.86 "HgN/A
3:50 AM43 °FScattered showers. Partly cloudy.3 mph76%29.86 "HgN/A
3:20 AM43 °FScattered showers. Partly cloudy.6 mph76%29.86 "HgN/A
2:50 AM43 °FScattered showers. Partly cloudy.6 mph76%29.86 "HgN/A
2:20 AM43 °FScattered showers. Partly cloudy.6 mph81%29.86 "HgN/A
1:50 AM45 °FScattered showers. Partly cloudy.8 mph76%29.83 "HgN/A
1:20 AM45 °FScattered showers. Partly cloudy.8 mph76%29.83 "HgN/A
12:50 AM45 °FScattered showers. Partly cloudy.7 mph76%29.80 "HgN/A
12:20 AM45 °FScattered showers. Partly cloudy.9 mph76%29.80 "HgN/A
11:50 PM
Wed, May 6
45 °FScattered showers. Partly cloudy.8 mph76%29.80 "HgN/A
11:20 PM45 °FScattered showers. Partly cloudy.8 mph71%29.77 "HgN/A
10:50 PM46 °FScattered showers. Partly cloudy.8 mph71%29.77 "HgN/A
10:20 PM46 °FScattered showers. Partly cloudy.12 mph71%29.77 "HgN/A
9:50 PM46 °FScattered showers. Broken clouds.9 mph71%29.74 "HgN/A
9:20 PM48 °FScattered showers. Scattered clouds.9 mph66%29.71 "HgN/A
8:50 PM48 °FSprinkles. Scattered clouds.13 mph66%29.71 "HgN/A
8:20 PM48 °FScattered clouds.12 mph66%29.68 "HgN/A
7:50 PM50 °FScattered clouds.12 mph62%29.68 "HgN/A
7:20 PM50 °FBroken clouds.13 mph62%29.65 "HgN/A
6:50 PM50 °FBroken clouds.13 mph62%29.62 "HgN/A
6:20 PM54 °FScattered clouds.17 mph58%29.59 "HgN/A
5:50 PM52 °FScattered showers. Scattered clouds.16 mph62%29.56 "HgN/A
5:20 PM50 °FScattered showers. Scattered clouds.17 mph67%29.56 "HgN/A
4:50 PM52 °FScattered showers. Scattered clouds.16 mph62%29.53 "HgN/A
4:20 PM52 °FSprinkles. Broken clouds.17 mph58%29.50 "HgN/A
3:50 PM50 °FSprinkles. Broken clouds.20 mph67%29.47 "HgN/A
3:20 PM50 °FBroken clouds.20 mph67%29.45 "HgN/A
2:50 PM50 °FBroken clouds.21 mph67%29.42 "HgN/A
2:20 PM50 °FScattered showers. Broken clouds.17 mph67%29.42 "HgN/A
1:50 PM50 °FScattered showers. Broken clouds.15 mph71%29.39 "HgN/A
1:20 PM52 °FBroken clouds.17 mph67%29.36 "HgN/A
12:50 PM52 °FBroken clouds.16 mph67%29.33 "HgN/A
12:20 PM50 °FBroken clouds.13 mph71%29.30 "HgN/A
11:50 AM50 °FBroken clouds.9 mph76%29.27 "HgN/A
11:20 AM48 °FSprinkles. Broken clouds.12 mph82%29.24 "HgN/A
10:50 AM48 °FSprinkles. Broken clouds.9 mph76%29.21 "HgN/A
10:20 AM48 °FSprinkles. Broken clouds.8 mph76%29.18 "HgN/A
9:50 AM48 °FSprinkles. Broken clouds.9 mph76%29.18 "HgN/A
9:20 AM48 °FScattered showers. Broken clouds.7 mph76%29.15 "HgN/A
Weather by CustomWeather, © 2015

See weather overviewHow to use our weather pages